Track COSMOS 2492 (GLONASS) now! COSMOS 2492 (GLONASS) is classified as:
1 39620U 14012A 25015.27544740 -.00000077 00000-0 00000-0 0 9999 2 39620 65.5814 331.4838 0014776 317.6750 42.2039 2.13103173 84200